Location: Piotrkow Trybunalski
(51.4000°N, 19.6830°E)
Time: 23:46:59
(UTC+01:00)

Explorer 7 - Pass Details

Date: 16 December 2025
Orbit: 433 x 550 km, 50.2° (Epoch: 13 January)

Event Time Altitude Azimuth Distance (km) Brightness Sun altitude
Rises 16:53:30 0° 240° (WSW) 2,477 12.2 -11.6°
Reaches altitude 10° 16:55:43 10° 235° (SW) 1,586 10.6 -11.9°
Maximum altitude 16:59:09 46° 161° (SSE) 607 7.0 -12.4°
Enters shadow 17:01:19 19° 94° (E) 1,103 7.8 -12.7°
